Location: Turtle Rock Observatory
(36.6913°N, 81.9708°W)
Time: 19:15:49
(UTC-05:00)

Lacrosse 5 rocket - Visible Passes

Search period start: 22 February 2017 00:00
Search period end: 04 March 2017 00:00
Orbit: 462 x 642 km, 57.0° (Epoch: 15 February)

Date Brightness Start Highest point End Pass type
(mag) Time Alt. Az. Time Alt. Az. Time Alt. Az.
24 Feb 4.0 06:00:43 10° NNE 06:01:16 10° NNE 06:01:50 10° NE visible
25 Feb 3.7 05:55:06 10° N 05:56:55 13° NE 05:58:45 10° ENE visible
26 Feb 3.6 05:50:03 10° N 05:52:32 17° NE 05:55:01 10° E visible
27 Feb 3.2 05:45:12 10° NNW 05:48:08 23° NE 05:51:02 10° E visible
28 Feb 2.7 05:40:26 10° NNW 05:43:40 31° NE 05:46:55 10° ESE visible
01 Mar 2.0 05:36:20 14° NNW 05:39:12 44° NE 05:42:38 10° ESE visible
02 Mar 1.3 05:32:34 23° NNW 05:34:41 66° NE 05:38:15 10° SE visible
03 Mar 0.8 05:28:57 40° NW 05:30:08 82° SW 05:33:44 10° SE visible
